This is the latest recevied weather packets stored in our database for station/object DM4XI-13. If no packets are shown the sender has not sent any weather packets the latest 10 day(s).
| Time | Temp. | Humidity | Pressure | Rain* | Wind** | Luminosity | Snow |
|---|---|---|---|---|---|---|---|
| 1777490589 | 8.89° C | 31% | 1023.6 hPa | 0 mm | 1.34 m/s, 3° | 0 W/m² | - |
| 1777490527 | 8.89° C | 31% | 1023.6 hPa | 0 mm | 1.34 m/s, 346° | 0 W/m² | - |
| 1777490466 | 8.89° C | 31% | 1023.6 hPa | 0 mm | 1.79 m/s, 305° | 0 W/m² | - |
| 1777490407 | 8.89° C | 31% | 1023.5 hPa | 0 mm | 0.89 m/s, 3° | 0 W/m² | - |
| 1777490345 | 8.89° C | 31% | 1023.5 hPa | 0 mm | 2.24 m/s, 340° | 0 W/m² | - |
| 1777490284 | 8.89° C | 31% | 1023.6 hPa | 0 mm | 1.79 m/s, 355° | 0 W/m² | - |
| 1777490223 | 8.89° C | 31% | 1023.7 hPa | 0 mm | 1.79 m/s, 71° | 0 W/m² | - |
| 1777490162 | 8.89° C | 31% | 1023.5 hPa | 0 mm | 0.89 m/s, 258° | 0 W/m² | - |
| 1777490102 | 8.89° C | 31% | 1023.6 hPa | 0 mm | 0.45 m/s, 243° | 0 W/m² | - |
| 1777490040 | 8.89° C | 31% | 1023.6 hPa | 0 mm | 2.24 m/s, 310° | 0 W/m² | - |
| 1777489979 | 8.89° C | 31% | 1023.5 hPa | 0 mm | 2.24 m/s, 355° | 0 W/m² | - |
| 1777489918 | 8.89° C | 32% | 1023.4 hPa | 0 mm | 0.89 m/s, 7° | 0 W/m² | - |
| 1777489857 | 8.89° C | 32% | 1023.4 hPa | 0 mm | 1.79 m/s, 289° | 0 W/m² | - |
| 1777489796 | 8.89° C | 32% | 1023.4 hPa | 0 mm | 0.89 m/s, 339° | 0 W/m² | - |
| 1777489735 | 8.89° C | 32% | 1023.4 hPa | 0 mm | 0.89 m/s, 24° | 0 W/m² | - |
| 1777489673 | 8.89° C | 33% | 1023.5 hPa | 0 mm | 0.45 m/s, 251° | 0 W/m² | - |
| 1777489613 | 8.89° C | 33% | 1023.3 hPa | 0 mm | 0.45 m/s, 172° | 0 W/m² | - |
| 1777489551 | 8.89° C | 33% | 1023.3 hPa | 0 mm | 0.45 m/s, 33° | 0 W/m² | - |
| 1777489491 | 8.89° C | 33% | 1023.3 hPa | 0 mm | 0 m/s | 0 W/m² | - |
| 1777489431 | 8.89° C | 33% | 1023.3 hPa | 0 mm | 0.45 m/s, 84° | 0 W/m² | - |
| 1777489371 | 8.89° C | 32% | 1023.3 hPa | 0 mm | 1.34 m/s, 353° | 0 W/m² | - |
| 1777489309 | 9.44° C | 33% | 1023.2 hPa | 0 mm | 0.45 m/s, 341° | 0 W/m² | - |
| 1777489248 | 9.44° C | 32% | 1023.2 hPa | 0 mm | 0.89 m/s, 61° | 0 W/m² | - |
| 1777489187 | 9.44° C | 32% | 1023.1 hPa | 0 mm | 0.89 m/s, 49° | 0 W/m² | - |
| 1777489126 | 9.44° C | 32% | 1023.1 hPa | 0 mm | 0.45 m/s, 15° | 0 W/m² | - |
* Rain latest hour (hover to see other rain measurements)
** Current wind speed in m/s (hover to see current wind gust speed)